Time,TemperatureF,DewpointF,PressureIn,WindDirection,WindDirectionDegrees,WindSpeedMPH,WindSpeedGustMPH,Humidity,HourlyPrecipIn,Conditions,Clouds,dailyrainin,SoftwareType,DateUTC
2013-05-24 00:00:00,67.6,65.0,29.72,South,189,2.0,0.0,92,0.00,,,0.56,oem by Ross Wheeler,2013-05-24 04:00:00,
2013-05-24 00:05:00,67.5,65.0,29.72,SSW,196,0.0,0.0,92,0.00,,,0.00,oem by Ross Wheeler,2013-05-24 04:05:00,
2013-05-24 00:10:00,67.5,65.0,29.72,SSW,212,0.0,0.0,92,0.00,,,0.00,oem by Ross Wheeler,2013-05-24 04:10:00,
2013-05-24 00:15:00,67.5,65.0,29.71,SSW,196,0.0,0.0,92,0.00,,,0.00,oem by Ross Wheeler,2013-05-24 04:15:00,
2013-05-24 00:20:00,67.5,66.0,29.71,South,179,0.0,0.0,93,0.00,,,0.00,oem by Ross Wheeler,2013-05-24 04:20:00,
2013-05-24 00:25:00,67.3,65.0,29.71,SSW,213,0.0,0.0,93,0.00,,,0.00,oem by Ross Wheeler,2013-05-24 04:25:00,
2013-05-24 00:30:00,67.3,65.0,29.71,SSE,161,0.0,0.0,93,0.00,,,0.00,oem by Ross Wheeler,2013-05-24 04:30:00,
2013-05-24 00:40:00,67.3,65.0,29.71,SW,233,0.0,0.0,93,0.00,,,0.00,oem by Ross Wheeler,2013-05-24 04:40:00,
2013-05-24 00:45:00,67.3,65.0,29.70,SSW,209,0.0,0.0,93,0.00,,,0.00,oem by Ross Wheeler,2013-05-24 04:45:00,
2013-05-24 00:55:00,67.1,65.0,29.70,SSW,200,0.0,0.0,93,0.00,,,0.00,oem by Ross Wheeler,2013-05-24 04:55:00,
2013-05-24 01:01:00,67.1,65.0,29.69,SSW,200,0.0,0.0,93,0.00,,,0.00,oem by Ross Wheeler,2013-05-24 05:01:00,
2013-05-24 01:10:00,67.1,65.0,29.69,SW,217,1.0,0.0,93,0.00,,,0.00,oem by Ross Wheeler,2013-05-24 05:10:00,
2013-05-24 01:15:00,67.1,65.0,29.69,SW,223,2.0,0.0,94,0.00,,,0.00,oem by Ross Wheeler,2013-05-24 05:15:00,
2013-05-24 01:25:00,66.6,65.0,29.69,SSW,196,0.0,0.0,93,0.00,,,0.00,oem by Ross Wheeler,2013-05-24 05:25:00,
2013-05-24 01:31:00,66.5,65.0,29.69,NW,316,0.0,0.0,93,0.00,,,0.00,oem by Ross Wheeler,2013-05-24 05:31:00,
2013-05-24 01:40:00,66.0,64.0,29.69,SW,220,0.0,0.0,92,0.00,,,0.00,oem by Ross Wheeler,2013-05-24 05:40:00,
2013-05-24 01:45:00,65.8,64.0,29.69,West,265,1.0,0.0,92,0.00,,,0.00,oem by Ross Wheeler,2013-05-24 05:45:00,
2013-05-24 01:55:00,65.5,64.0,29.69,West,261,0.0,0.0,93,0.00,,,0.04,oem by Ross Wheeler,2013-05-24 05:55:00,
2013-05-24 02:00:00,65.5,64.0,29.69,West,261,0.0,0.0,93,0.00,,,0.07,oem by Ross Wheeler,2013-05-24 06:00:00,
2013-05-24 02:10:00,65.2,63.0,29.69,SSW,202,0.0,0.0,93,0.00,,,0.09,oem by Ross Wheeler,2013-05-24 06:10:00,
2013-05-24 02:15:00,65.0,63.0,29.68,SSW,202,0.0,0.0,93,0.00,,,0.10,oem by Ross Wheeler,2013-05-24 06:15:00,
2013-05-24 02:25:00,64.2,63.0,29.68,SSW,202,0.0,0.0,94,0.00,,,0.12,oem by Ross Wheeler,2013-05-24 06:25:00,
2013-05-24 02:30:00,63.9,62.0,29.67,SSW,202,0.0,0.0,94,0.00,,,0.12,oem by Ross Wheeler,2013-05-24 06:30:00,
2013-05-24 02:40:00,63.5,62.0,29.67,East,99,0.0,0.0,95,0.00,,,0.12,oem by Ross Wheeler,2013-05-24 06:40:00,
2013-05-24 02:45:00,63.5,62.0,29.66,East,99,0.0,0.0,95,0.00,,,0.12,oem by Ross Wheeler,2013-05-24 06:45:00,
2013-05-24 02:55:00,63.4,62.0,29.66,East,100,0.0,0.0,95,0.00,,,0.12,oem by Ross Wheeler,2013-05-24 06:55:00,
2013-05-24 03:01:00,63.2,62.0,29.66,East,100,0.0,0.0,95,0.00,,,0.12,oem by Ross Wheeler,2013-05-24 07:01:00,
2013-05-24 03:10:00,63.2,62.0,29.66,East,100,0.0,0.0,96,0.00,,,0.12,oem by Ross Wheeler,2013-05-24 07:10:00,
2013-05-24 03:15:00,63.4,62.0,29.66,East,100,0.0,0.0,96,0.00,,,0.12,oem by Ross Wheeler,2013-05-24 07:15:00,
2013-05-24 03:25:00,63.4,62.0,29.66,East,100,0.0,0.0,96,0.00,,,0.12,oem by Ross Wheeler,2013-05-24 07:25:00,
2013-05-24 03:30:00,63.4,62.0,29.66,South,181,2.0,0.0,96,0.00,,,0.12,oem by Ross Wheeler,2013-05-24 07:30:00,
2013-05-24 03:40:00,63.4,62.0,29.66,SSW,212,0.0,0.0,96,0.00,,,0.12,oem by Ross Wheeler,2013-05-24 07:40:00,
2013-05-24 03:45:00,63.4,62.0,29.68,South,186,2.0,0.0,96,0.00,,,0.12,oem by Ross Wheeler,2013-05-24 07:45:00,
2013-05-24 03:55:00,63.2,62.0,29.68,SSW,209,2.0,0.0,96,0.00,,,0.12,oem by Ross Wheeler,2013-05-24 07:55:00,
2013-05-24 04:00:00,63.2,62.0,29.68,SSW,209,0.0,0.0,96,0.00,,,0.12,oem by Ross Wheeler,2013-05-24 08:00:00,
2013-05-24 04:10:00,63.2,62.0,29.68,SSW,206,0.0,0.0,96,0.00,,,0.13,oem by Ross Wheeler,2013-05-24 08:10:00,
2013-05-24 04:15:00,63.2,62.0,29.67,SSW,206,1.0,0.0,96,0.00,,,0.13,oem by Ross Wheeler,2013-05-24 08:15:00,
2013-05-24 04:25:00,63.2,62.0,29.67,SSW,210,0.0,0.0,96,0.00,,,0.13,oem by Ross Wheeler,2013-05-24 08:25:00,
2013-05-24 04:30:00,63.2,62.0,29.67,SSW,210,0.0,0.0,96,0.00,,,0.13,oem by Ross Wheeler,2013-05-24 08:30:00,
2013-05-24 04:40:00,63.1,62.0,29.67,SSW,206,1.0,0.0,96,0.00,,,0.13,oem by Ross Wheeler,2013-05-24 08:40:00,
2013-05-24 04:45:00,63.1,62.0,29.68,SSW,206,2.0,0.0,96,0.00,,,0.13,oem by Ross Wheeler,2013-05-24 08:45:00,
2013-05-24 04:55:00,63.1,62.0,29.68,West,264,1.0,0.0,97,0.00,,,0.13,oem by Ross Wheeler,2013-05-24 08:55:00,
2013-05-24 05:00:00,63.1,62.0,29.68,South,185,1.0,0.0,97,0.00,,,0.13,oem by Ross Wheeler,2013-05-24 09:00:00,
2013-05-24 05:10:00,63.1,62.0,29.68,SSW,205,5.0,0.0,97,0.00,,,0.13,oem by Ross Wheeler,2013-05-24 09:10:00,
2013-05-24 05:15:00,62.9,62.0,29.68,SSW,195,1.0,0.0,97,0.00,,,0.13,oem by Ross Wheeler,2013-05-24 09:15:00,
2013-05-24 05:25:00,62.9,62.0,29.68,SW,236,0.0,0.0,97,0.00,,,0.13,oem by Ross Wheeler,2013-05-24 09:25:00,
2013-05-24 05:30:00,62.9,62.0,29.68,SW,229,2.0,0.0,97,0.00,,,0.13,oem by Ross Wheeler,2013-05-24 09:30:00,
2013-05-24 05:40:00,62.9,62.0,29.68,SSW,202,0.0,0.0,97,0.00,,,0.13,oem by Ross Wheeler,2013-05-24 09:40:00,
2013-05-24 05:45:00,62.7,62.0,29.68,SW,216,1.0,0.0,97,0.00,,,0.13,oem by Ross Wheeler,2013-05-24 09:45:00,
2013-05-24 05:55:00,62.6,62.0,29.68,SSW,193,0.0,0.0,97,0.00,,,0.13,oem by Ross Wheeler,2013-05-24 09:55:00,
2013-05-24 06:00:00,62.6,62.0,29.67,West,272,0.0,0.0,97,0.00,,,0.13,oem by Ross Wheeler,2013-05-24 10:00:00,
2013-05-24 06:10:00,62.6,62.0,29.67,West,272,0.0,0.0,97,0.00,,,0.13,oem by Ross Wheeler,2013-05-24 10:10:00,
2013-05-24 06:15:00,62.6,62.0,29.68,South,179,0.0,0.0,97,0.00,,,0.13,oem by Ross Wheeler,2013-05-24 10:15:00,
2013-05-24 06:25:00,62.7,62.0,29.68,SSW,203,0.0,0.0,97,0.00,,,0.13,oem by Ross Wheeler,2013-05-24 10:25:00,
2013-05-24 06:30:00,62.7,62.0,29.68,SSW,203,0.0,0.0,97,0.00,,,0.13,oem by Ross Wheeler,2013-05-24 10:30:00,
2013-05-24 06:40:00,62.7,62.0,29.68,SSW,203,0.0,0.0,97,0.00,,,0.13,oem by Ross Wheeler,2013-05-24 10:40:00,
2013-05-24 06:45:00,62.7,62.0,29.69,SSW,203,0.0,0.0,97,0.00,,,0.13,oem by Ross Wheeler,2013-05-24 10:45:00,
2013-05-24 06:55:00,62.7,62.0,29.69,SSW,203,0.0,0.0,97,0.00,,,0.13,oem by Ross Wheeler,2013-05-24 10:55:00,
2013-05-24 07:01:00,62.9,62.0,29.69,SSW,203,0.0,0.0,97,0.00,,,0.13,oem by Ross Wheeler,2013-05-24 11:01:00,
2013-05-24 07:10:00,62.9,62.0,29.69,SSW,203,2.0,0.0,97,0.00,,,0.13,oem by Ross Wheeler,2013-05-24 11:10:00,
2013-05-24 07:15:00,62.9,62.0,29.70,SSW,205,0.0,0.0,97,0.00,,,0.13,oem by Ross Wheeler,2013-05-24 11:15:00,
2013-05-24 07:25:00,62.9,62.0,29.70,SSW,202,0.0,0.0,97,0.00,,,0.13,oem by Ross Wheeler,2013-05-24 11:25:00,
2013-05-24 07:30:00,63.1,62.0,29.70,NW,306,1.0,0.0,97,0.00,,,0.13,oem by Ross Wheeler,2013-05-24 11:30:00,
2013-05-24 07:40:00,63.1,62.0,29.70,SW,231,0.0,0.0,97,0.00,,,0.13,oem by Ross Wheeler,2013-05-24 11:40:00,
2013-05-24 07:45:00,63.1,62.0,29.71,SW,231,1.0,0.0,97,0.00,,,0.13,oem by Ross Wheeler,2013-05-24 11:45:00,
2013-05-24 07:55:00,63.1,62.0,29.71,SSW,206,0.0,0.0,97,0.00,,,0.13,oem by Ross Wheeler,2013-05-24 11:55:00,
2013-05-24 08:00:00,63.2,62.0,29.71,SSW,213,0.0,0.0,97,0.00,,,0.13,oem by Ross Wheeler,2013-05-24 12:00:00,
2013-05-24 08:10:00,63.2,62.0,29.71,SSW,213,0.0,0.0,97,0.00,,,0.13,oem by Ross Wheeler,2013-05-24 12:10:00,
2013-05-24 08:15:00,63.4,63.0,29.71,SSW,213,0.0,0.0,97,0.00,,,0.13,oem by Ross Wheeler,2013-05-24 12:15:00,
2013-05-24 08:25:00,63.4,63.0,29.71,SSW,213,0.0,0.0,97,0.00,,,0.13,oem by Ross Wheeler,2013-05-24 12:25:00,
2013-05-24 08:30:00,63.5,63.0,29.71,SSW,213,0.0,0.0,97,0.00,,,0.13,oem by Ross Wheeler,2013-05-24 12:30:00,
2013-05-24 08:40:00,63.7,63.0,29.71,SSW,213,0.0,0.0,97,0.00,,,0.13,oem by Ross Wheeler,2013-05-24 12:40:00,
2013-05-24 08:45:00,63.7,63.0,29.71,SSW,199,0.0,0.0,97,0.00,,,0.13,oem by Ross Wheeler,2013-05-24 12:45:00,
2013-05-24 08:55:00,63.7,63.0,29.71,SSW,207,3.0,0.0,97,0.00,,,0.13,oem by Ross Wheeler,2013-05-24 12:55:00,
2013-05-24 09:00:00,63.7,63.0,29.71,SSW,207,0.0,0.0,97,0.00,,,0.13,oem by Ross Wheeler,2013-05-24 13:00:00,
2013-05-24 09:10:00,64.4,64.0,29.71,SW,236,3.0,0.0,97,0.00,,,0.13,oem by Ross Wheeler,2013-05-24 13:10:00,
2013-05-24 09:15:00,64.2,63.0,29.72,SW,220,0.0,0.0,97,0.00,,,0.13,oem by Ross Wheeler,2013-05-24 13:15:00,
2013-05-24 09:25:00,63.9,63.0,29.72,SW,224,0.0,0.0,97,0.00,,,0.13,oem by Ross Wheeler,2013-05-24 13:25:00,
2013-05-24 09:30:00,64.0,63.0,29.72,SW,224,0.0,0.0,97,0.00,,,0.13,oem by Ross Wheeler,2013-05-24 13:30:00,
2013-05-24 09:40:00,64.2,63.0,29.72,SW,224,0.0,0.0,96,0.00,,,0.13,oem by Ross Wheeler,2013-05-24 13:40:00,
2013-05-24 09:45:00,64.2,63.0,29.72,SW,234,0.0,0.0,96,0.00,,,0.13,oem by Ross Wheeler,2013-05-24 13:45:00,
2013-05-24 09:55:00,64.2,63.0,29.72,SW,234,0.0,0.0,96,0.00,,,0.13,oem by Ross Wheeler,2013-05-24 13:55:00,
2013-05-24 10:01:00,63.1,62.0,29.73,NW,313,0.0,0.0,95,0.00,,,0.13,oem by Ross Wheeler,2013-05-24 14:01:00,
2013-05-24 10:10:00,59.6,58.0,29.73,NNW,336,1.0,0.0,93,0.00,,,0.13,oem by Ross Wheeler,2013-05-24 14:10:00,
2013-05-24 10:15:00,58.8,57.0,29.74,NNW,337,0.0,0.0,94,0.00,,,0.13,oem by Ross Wheeler,2013-05-24 14:15:00,
2013-05-24 10:25:00,57.8,56.0,29.74,North,350,0.0,0.0,93,0.00,,,0.13,oem by Ross Wheeler,2013-05-24 14:25:00,
2013-05-24 10:31:00,57.5,55.0,29.74,NNW,343,0.0,0.0,92,0.00,,,0.13,oem by Ross Wheeler,2013-05-24 14:31:00,
2013-05-24 10:40:00,56.2,54.0,29.74,NNW,343,0.0,0.0,91,0.00,,,0.13,oem by Ross Wheeler,2013-05-24 14:40:00,
2013-05-24 10:45:00,55.7,53.0,29.75,NNW,339,0.0,0.0,90,0.00,,,0.13,oem by Ross Wheeler,2013-05-24 14:45:00,
2013-05-24 10:55:00,55.2,52.0,29.75,NNW,336,2.0,0.0,88,0.00,,,0.13,oem by Ross Wheeler,2013-05-24 14:55:00,
2013-05-24 11:00:00,55.1,52.0,29.75,NNW,342,0.0,0.0,89,0.00,,,0.13,oem by Ross Wheeler,2013-05-24 15:00:00,
2013-05-24 11:10:00,54.9,52.0,29.75,ENE,66,0.0,0.0,88,0.00,,,0.13,oem by Ross Wheeler,2013-05-24 15:10:00,
2013-05-24 11:15:00,55.1,52.0,29.76,NE,56,0.0,0.0,89,0.00,,,0.13,oem by Ross Wheeler,2013-05-24 15:15:00,
2013-05-24 11:25:00,54.8,51.0,29.76,NW,325,0.0,0.0,87,0.00,,,0.13,oem by Ross Wheeler,2013-05-24 15:25:00,
2013-05-24 11:30:00,54.8,51.0,29.76,NNW,343,0.0,0.0,87,0.00,,,0.13,oem by Ross Wheeler,2013-05-24 15:30:00,
2013-05-24 11:40:00,54.8,50.0,29.76,NNW,343,0.0,0.0,85,0.00,,,0.13,oem by Ross Wheeler,2013-05-24 15:40:00,
2013-05-24 11:45:00,54.9,51.0,29.76,NNW,343,1.0,0.0,87,0.00,,,0.13,oem by Ross Wheeler,2013-05-24 15:45:00,
2013-05-24 11:55:00,55.2,51.0,29.76,SE,126,0.0,0.0,86,0.00,,,0.13,oem by Ross Wheeler,2013-05-24 15:55:00,
2013-05-24 12:00:00,55.4,51.0,29.77,NW,320,0.0,0.0,85,0.00,,,0.13,oem by Ross Wheeler,2013-05-24 16:00:00,
2013-05-24 12:10:00,55.2,50.0,29.77,NNW,339,1.0,0.0,83,0.00,,,0.13,oem by Ross Wheeler,2013-05-24 16:10:00,
2013-05-24 12:15:00,55.2,50.0,29.77,NNW,343,0.0,0.0,82,0.00,,,0.13,oem by Ross Wheeler,2013-05-24 16:15:00,
2013-05-24 12:25:00,54.6,49.0,29.77,NNW,336,1.0,0.0,81,0.00,,,0.13,oem by Ross Wheeler,2013-05-24 16:25:00,
2013-05-24 12:30:00,54.2,48.0,29.78,NW,311,0.0,0.0,80,0.00,,,0.13,oem by Ross Wheeler,2013-05-24 16:30:00,
2013-05-24 12:40:00,53.7,48.0,29.78,North,349,0.0,0.0,82,0.00,,,0.13,oem by Ross Wheeler,2013-05-24 16:40:00,
2013-05-24 12:45:00,53.4,48.0,29.79,NW,313,2.0,0.0,81,0.00,,,0.13,oem by Ross Wheeler,2013-05-24 16:45:00,
2013-05-24 12:55:00,53.1,48.0,29.79,NW,313,0.0,0.0,82,0.00,,,0.13,oem by Ross Wheeler,2013-05-24 16:55:00,
2013-05-24 13:00:00,53.0,48.0,29.79,North,0,2.0,0.0,83,0.00,,,0.13,oem by Ross Wheeler,2013-05-24 17:00:00,
2013-05-24 13:10:00,52.8,48.0,29.79,North,6,0.0,0.0,85,0.00,,,0.13,oem by Ross Wheeler,2013-05-24 17:10:00,
2013-05-24 13:15:00,52.8,49.0,29.79,ENE,68,0.0,0.0,87,0.00,,,0.13,oem by Ross Wheeler,2013-05-24 17:15:00,
2013-05-24 13:25:00,52.1,48.0,29.79,NNE,18,0.0,0.0,86,0.00,,,0.13,oem by Ross Wheeler,2013-05-24 17:25:00,
2013-05-24 13:30:00,51.8,48.0,29.80,NNW,343,0.0,0.0,87,0.00,,,0.13,oem by Ross Wheeler,2013-05-24 17:30:00,
2013-05-24 13:40:00,51.5,48.0,29.80,NNE,28,1.0,0.0,89,0.00,,,0.14,oem by Ross Wheeler,2013-05-24 17:40:00,
2013-05-24 13:45:00,51.1,48.0,29.81,NW,322,2.0,0.0,89,0.00,,,0.15,oem by Ross Wheeler,2013-05-24 17:45:00,
2013-05-24 13:55:00,50.5,48.0,29.81,NNW,332,0.0,0.0,91,0.00,,,0.18,oem by Ross Wheeler,2013-05-24 17:55:00,
2013-05-24 14:00:00,50.2,48.0,29.81,West,267,1.0,0.0,91,0.00,,,0.18,oem by Ross Wheeler,2013-05-24 18:00:00,
2013-05-24 14:10:00,50.0,48.0,29.81,SSE,165,0.0,0.0,93,0.00,,,0.19,oem by Ross Wheeler,2013-05-24 18:10:00,
2013-05-24 14:15:00,50.2,48.0,29.81,NNW,339,2.0,0.0,93,0.00,,,0.19,oem by Ross Wheeler,2013-05-24 18:15:00,
2013-05-24 14:25:00,50.0,48.0,29.81,NNW,335,0.0,0.0,93,0.00,,,0.20,oem by Ross Wheeler,2013-05-24 18:25:00,
2013-05-24 14:31:00,49.9,48.0,29.80,WNW,299,0.0,0.0,93,0.00,,,0.20,oem by Ross Wheeler,2013-05-24 18:31:00,
2013-05-24 14:40:00,49.7,48.0,29.80,North,8,1.0,0.0,94,0.00,,,0.20,oem by Ross Wheeler,2013-05-24 18:40:00,
2013-05-24 14:45:00,49.9,48.0,29.81,NNW,346,0.0,0.0,94,0.00,,,0.21,oem by Ross Wheeler,2013-05-24 18:45:00,
2013-05-24 14:55:00,50.0,49.0,29.81,SSE,147,0.0,0.0,95,0.00,,,0.21,oem by Ross Wheeler,2013-05-24 18:55:00,
2013-05-24 15:00:00,50.0,49.0,29.82,East,100,0.0,0.0,95,0.00,,,0.21,oem by Ross Wheeler,2013-05-24 19:00:00,
2013-05-24 15:10:00,49.9,49.0,29.82,West,278,0.0,0.0,95,0.00,,,0.21,oem by Ross Wheeler,2013-05-24 19:10:00,
2013-05-24 15:15:00,49.7,48.0,29.81,NNW,342,0.0,0.0,95,0.00,,,0.22,oem by Ross Wheeler,2013-05-24 19:15:00,
2013-05-24 15:25:00,49.6,48.0,29.81,NNW,337,0.0,0.0,95,0.00,,,0.24,oem by Ross Wheeler,2013-05-24 19:25:00,
2013-05-24 15:30:00,49.7,48.0,29.81,NNE,14,0.0,0.0,95,0.00,,,0.25,oem by Ross Wheeler,2013-05-24 19:30:00,
2013-05-24 15:40:00,49.9,49.0,29.81,NNW,343,0.0,0.0,96,0.00,,,0.27,oem by Ross Wheeler,2013-05-24 19:40:00,
2013-05-24 15:45:00,49.7,48.0,29.82,NNW,343,0.0,0.0,95,0.00,,,0.27,oem by Ross Wheeler,2013-05-24 19:45:00,
2013-05-24 15:55:00,49.6,48.0,29.82,West,268,0.0,0.0,95,0.00,,,0.27,oem by Ross Wheeler,2013-05-24 19:55:00,
2013-05-24 16:01:00,49.4,48.0,29.83,WSW,240,0.0,0.0,95,0.00,,,0.27,oem by Ross Wheeler,2013-05-24 20:01:00,
2013-05-24 16:10:00,49.4,48.0,29.83,NNW,343,0.0,0.0,95,0.00,,,0.28,oem by Ross Wheeler,2013-05-24 20:10:00,
2013-05-24 16:15:00,49.3,48.0,29.82,NW,326,0.0,0.0,95,0.00,,,0.28,oem by Ross Wheeler,2013-05-24 20:15:00,
2013-05-24 16:25:00,49.1,48.0,29.82,West,265,1.0,0.0,96,0.00,,,0.29,oem by Ross Wheeler,2013-05-24 20:25:00,
2013-05-24 16:31:00,48.8,48.0,29.82,NW,320,1.0,0.0,95,0.00,,,0.30,oem by Ross Wheeler,2013-05-24 20:31:00,
2013-05-24 16:40:00,48.7,48.0,29.82,SW,220,0.0,0.0,96,0.00,,,0.32,oem by Ross Wheeler,2013-05-24 20:40:00,
2013-05-24 16:45:00,48.7,48.0,29.84,NW,308,0.0,0.0,96,0.00,,,0.33,oem by Ross Wheeler,2013-05-24 20:45:00,
2013-05-24 16:55:00,48.6,48.0,29.84,NW,308,3.0,0.0,96,0.00,,,0.35,oem by Ross Wheeler,2013-05-24 20:55:00,
2013-05-24 17:01:00,48.6,48.0,29.83,NW,326,1.0,0.0,96,0.00,,,0.35,oem by Ross Wheeler,2013-05-24 21:01:00,
2013-05-24 17:10:00,48.1,47.0,29.83,NNW,327,2.0,0.0,95,0.00,,,0.36,oem by Ross Wheeler,2013-05-24 21:10:00,
2013-05-24 17:15:00,48.0,47.0,29.84,West,274,0.0,0.0,95,0.00,,,0.36,oem by Ross Wheeler,2013-05-24 21:15:00,
2013-05-24 17:25:00,48.1,47.0,29.84,NNW,343,2.0,0.0,96,0.00,,,0.37,oem by Ross Wheeler,2013-05-24 21:25:00,
2013-05-24 17:30:00,48.0,47.0,29.83,NNW,337,0.0,0.0,95,0.00,,,0.38,oem by Ross Wheeler,2013-05-24 21:30:00,
2013-05-24 17:40:00,47.5,46.0,29.83,NW,316,0.0,0.0,95,0.00,,,0.39,oem by Ross Wheeler,2013-05-24 21:40:00,
2013-05-24 17:45:00,47.7,46.0,29.85,NW,309,1.0,0.0,95,0.00,,,0.39,oem by Ross Wheeler,2013-05-24 21:45:00,
2013-05-24 17:55:00,47.7,47.0,29.85,NW,323,0.0,0.0,96,0.00,,,0.39,oem by Ross Wheeler,2013-05-24 21:55:00,
2013-05-24 18:00:00,47.7,47.0,29.87,NNW,335,0.0,0.0,96,0.00,,,0.39,oem by Ross Wheeler,2013-05-24 22:00:00,
2013-05-24 18:10:00,47.2,46.0,29.87,NW,326,0.0,0.0,95,0.00,,,0.39,oem by Ross Wheeler,2013-05-24 22:10:00,
2013-05-24 18:15:00,47.2,46.0,29.86,NNW,340,3.0,0.0,95,0.00,,,0.39,oem by Ross Wheeler,2013-05-24 22:15:00,
2013-05-24 18:25:00,47.1,46.0,29.86,NW,323,0.0,0.0,95,0.00,,,0.39,oem by Ross Wheeler,2013-05-24 22:25:00,
2013-05-24 18:31:00,47.1,46.0,29.85,NNW,337,2.0,0.0,95,0.00,,,0.39,oem by Ross Wheeler,2013-05-24 22:31:00,
2013-05-24 18:40:00,46.8,45.0,29.85,North,351,0.0,0.0,94,0.00,,,0.39,oem by Ross Wheeler,2013-05-24 22:40:00,
2013-05-24 18:45:00,46.8,45.0,29.85,NNW,346,1.0,0.0,94,0.00,,,0.39,oem by Ross Wheeler,2013-05-24 22:45:00,
2013-05-24 18:55:00,46.9,45.0,29.85,NNW,332,0.0,0.0,93,0.00,,,0.39,oem by Ross Wheeler,2013-05-24 22:55:00,
2013-05-24 19:00:00,46.8,45.0,29.86,ESE,110,0.0,0.0,93,0.00,,,0.39,oem by Ross Wheeler,2013-05-24 23:00:00,
2013-05-24 19:10:00,46.8,45.0,29.86,NW,322,0.0,0.0,93,0.00,,,0.39,oem by Ross Wheeler,2013-05-24 23:10:00,
2013-05-24 19:15:00,46.8,45.0,29.87,South,172,2.0,0.0,93,0.00,,,0.39,oem by Ross Wheeler,2013-05-24 23:15:00,
2013-05-24 19:25:00,46.5,44.0,29.87,NNW,330,0.0,0.0,92,0.00,,,0.39,oem by Ross Wheeler,2013-05-24 23:25:00,
2013-05-24 19:30:00,46.3,44.0,29.88,NNW,343,2.0,0.0,90,0.00,,,0.39,oem by Ross Wheeler,2013-05-24 23:30:00,
2013-05-24 19:40:00,46.3,43.0,29.88,NNW,343,0.0,0.0,89,0.00,,,0.39,oem by Ross Wheeler,2013-05-24 23:40:00,
2013-05-24 19:46:00,46.5,44.0,29.88,NNW,343,0.0,0.0,90,0.00,,,0.39,oem by Ross Wheeler,2013-05-24 23:46:00,
2013-05-24 19:55:00,46.3,43.0,29.88,NNW,343,0.0,0.0,89,0.00,,,0.39,oem by Ross Wheeler,2013-05-24 23:55:00,
2013-05-24 20:01:00,46.5,44.0,29.88,NW,308,1.0,0.0,89,0.00,,,0.39,oem by Ross Wheeler,2013-05-25 00:01:00,
2013-05-24 20:10:00,46.5,44.0,29.88,NNW,327,0.0,0.0,89,0.00,,,0.39,oem by Ross Wheeler,2013-05-25 00:10:00,
2013-05-24 20:15:00,46.5,43.0,29.90,North,349,3.0,0.0,88,0.00,,,0.39,oem by Ross Wheeler,2013-05-25 00:15:00,
2013-05-24 20:25:00,46.5,43.0,29.90,SW,222,0.0,0.0,88,0.00,,,0.39,oem by Ross Wheeler,2013-05-25 00:25:00,
2013-05-24 20:30:00,46.5,43.0,29.90,SW,230,0.0,0.0,88,0.00,,,0.39,oem by Ross Wheeler,2013-05-25 00:30:00,
2013-05-24 20:40:00,46.5,43.0,29.90,NNW,336,1.0,0.0,87,0.00,,,0.39,oem by Ross Wheeler,2013-05-25 00:40:00,
2013-05-24 20:45:00,46.6,43.0,29.88,NNW,335,0.0,0.0,86,0.00,,,0.39,oem by Ross Wheeler,2013-05-25 00:45:00,
2013-05-24 20:55:00,46.6,42.0,29.88,NNW,332,3.0,0.0,85,0.00,,,0.39,oem by Ross Wheeler,2013-05-25 00:55:00,
2013-05-24 21:00:00,46.8,42.0,29.89,NNW,337,0.0,0.0,84,0.00,,,0.39,oem by Ross Wheeler,2013-05-25 01:00:00,
2013-05-24 21:10:00,46.8,43.0,29.89,ESE,120,0.0,0.0,85,0.00,,,0.39,oem by Ross Wheeler,2013-05-25 01:10:00,
2013-05-24 21:15:00,46.9,43.0,29.89,ENE,61,1.0,0.0,86,0.00,,,0.39,oem by Ross Wheeler,2013-05-25 01:15:00,
2013-05-24 21:25:00,46.8,43.0,29.89,ESE,109,0.0,0.0,87,0.00,,,0.39,oem by Ross Wheeler,2013-05-25 01:25:00,
2013-05-24 21:30:00,46.8,44.0,29.90,NNW,343,2.0,0.0,88,0.00,,,0.40,oem by Ross Wheeler,2013-05-25 01:30:00,
2013-05-24 21:40:00,46.3,43.0,29.90,NW,311,0.0,0.0,88,0.00,,,0.40,oem by Ross Wheeler,2013-05-25 01:40:00,
2013-05-24 21:45:00,46.0,43.0,29.92,NW,322,3.0,0.0,89,0.00,,,0.40,oem by Ross Wheeler,2013-05-25 01:45:00,
2013-05-24 21:55:00,45.9,43.0,29.92,WNW,299,0.0,0.0,90,0.00,,,0.41,oem by Ross Wheeler,2013-05-25 01:55:00,
2013-05-24 22:00:00,45.9,43.0,29.93,WNW,284,0.0,0.0,90,0.00,,,0.41,oem by Ross Wheeler,2013-05-25 02:00:00,
2013-05-24 22:10:00,45.7,43.0,29.93,NNW,342,0.0,0.0,90,0.00,,,0.41,oem by Ross Wheeler,2013-05-25 02:10:00,
2013-05-24 22:15:00,45.9,43.0,29.92,NNW,343,0.0,0.0,90,0.00,,,0.41,oem by Ross Wheeler,2013-05-25 02:15:00,
2013-05-24 22:25:00,45.7,43.0,29.92,West,277,0.0,0.0,91,0.00,,,0.41,oem by Ross Wheeler,2013-05-25 02:25:00,
2013-05-24 22:30:00,45.7,43.0,29.91,NNE,24,0.0,0.0,91,0.00,,,0.41,oem by Ross Wheeler,2013-05-25 02:30:00,
2013-05-24 22:40:00,45.7,43.0,29.91,NNW,340,0.0,0.0,91,0.00,,,0.41,oem by Ross Wheeler,2013-05-25 02:40:00,
2013-05-24 22:45:00,45.7,43.0,29.92,NW,312,0.0,0.0,91,0.00,,,0.41,oem by Ross Wheeler,2013-05-25 02:45:00,
2013-05-24 22:55:00,45.7,43.0,29.92,South,179,0.0,0.0,91,0.00,,,0.41,oem by Ross Wheeler,2013-05-25 02:55:00,
2013-05-24 23:00:00,45.7,43.0,29.92,SW,236,2.0,0.0,91,0.00,,,0.41,oem by Ross Wheeler,2013-05-25 03:00:00,
2013-05-24 23:10:00,45.7,43.0,29.92,NW,326,0.0,0.0,90,0.00,,,0.41,oem by Ross Wheeler,2013-05-25 03:10:00,
2013-05-24 23:15:00,45.6,43.0,29.92,NNW,343,0.0,0.0,90,0.00,,,0.41,oem by Ross Wheeler,2013-05-25 03:15:00,
2013-05-24 23:25:00,45.7,43.0,29.92,SSE,167,0.0,0.0,90,0.00,,,0.41,oem by Ross Wheeler,2013-05-25 03:25:00,
2013-05-24 23:30:00,45.7,43.0,29.92,NW,315,0.0,0.0,90,0.00,,,0.41,oem by Ross Wheeler,2013-05-25 03:30:00,
2013-05-24 23:40:00,45.7,43.0,29.92,South,179,0.0,0.0,90,0.00,,,0.41,oem by Ross Wheeler,2013-05-25 03:40:00,
2013-05-24 23:45:00,45.6,43.0,29.92,West,281,0.0,0.0,89,0.00,,,0.41,oem by Ross Wheeler,2013-05-25 03:45:00,
2013-05-24 23:55:00,45.4,42.0,29.92,NNW,339,0.0,0.0,89,0.00,,,0.41,oem by Ross Wheeler,2013-05-25 03:55:00,